Cloud_Cover
0 0 0 0 0 0 0 0 0 0 0 0 0 0 0 0 0 0 0 0 0 0 0 0 0 0 0 0 0 0 1 4 0 0 0 0 0 0 0 0 0 0 0
0 0 0 0 0 0 0 0 0 0 4 4 0 0 0 0 0 0 0 0 0 0 0 0 0 0 0 0 0 0 0 0 0 0 16 8 10 4 1 0 0 0 0
0 0 0 0 0 0 0 0 0 0 0 0 0 0 0 0 0 0 0 0 0 0 0 0 0 0 0 0 0 0 0 0 0 0 0 0 11 3 6 24 12 7 0
0 0 0 0 0 0 0 0 0 0 0 0 0 0 0 0 0 0 0 0 0 0 0 0 0 0 0 0 0 0 0 0 0 0 0 0 0 0 4 1 0 0 0
0 0 0 0 0 0 0 0 0 0 0 5 0 0 0 0 0 0 0 0 0 0 0 0 0 0 0 0 0 0 0 0 0 0 0 0 0 1 0 0 0 0 0
0 0 0 0 0 0 1 2 2 3 4 0 0 0 0 0 0 0 0 0 0 0 0 0 0 0 0 0 0 0 0 0 0 0 0 0 0 0 0 0 0 0 0
0 0 0 0 16 58 11 5 1 0 0 0 0 0 0 0 0 0 0 0 1 0 0 0 0 0 0 0 0 0 0 0 0 0 0 0 0 0 0 0 0 0 0
0 0 0 71 100 39 12 0 0 0 0 0 0 0 0 0 0 0 1 0 0 1 2 0 0 0 0 0 0 0 0 0 0 0 0 0 0 0 2 5 5 2 0
3 3 26 99 92 3 0 0 0 0 0 0 0 2 5 5 5 0 4 5 3 1 0 0 0 0 0 0 0 0 0 0 0 0 0 0 0 0 0 0 0 2 4
86 100 92 32 0 0 4 4 5 5 4 0 0 0 0 0 0 0 0 0 0 0 0 2 0 0 1 0 0 0 0 0 0 0 0 0 0 0 0 0 0 0 0
64 0 0 0 4 5 5 5 3 4 0 0 0 0 4 5 2 3 3 2 0 5 4 1 4 0 0 0 0 0 0 0 3 5 5 0 0 0 0 0 0 0 0
19 5 5 5 2 1 0 0 0 0 0 0 0 4 5 4 2 0 0 6 52 33 37 12 19 5 2 3 0 0 0 4 5 5 18 15 55 33 5 5 1 0 0
5 5 4 0 0 0 0 0 0 0 0 0 2 5 5 5 4 6 4 5 16 13 38 52 18 12 35 11 6 1 11 23 42 56 14 11 49 78 99 90 88 73 8
5 2 0 0 0 0 2 4 5 5 5 5 5 11 25 5 5 5 5 5 11 6 5 4 5 5 5 4 27 96 94 72 74 50 60 91 99 98 92 89 94 98 99
4 8 5 30 49 47 35 5 28 5 5 5 5 17 5 5 5 16 5 5 5 5 5 33 62 8 6 16 5 5 49 100 86 100 37 65 88 73 97 100 100 100 100
5 6 19 26 57 95 100 100 61 48 39 42 48 38 13 5 5 5 5 5 5 5 5 5 6 6 94 99 100 96 56 57 65 57 53 15 6 74 100 100 100 100 100
99 100 100 97 90 99 86 61 57 70 76 48 7 19 15 20 42 31 47 66 68 62 38 36 13 38 16 5 5 5 5 5 5 14 34 24 25 82 100 100 100 100 100
99 86 17 12 33 30 62 77 52 84 99 100 100 99 90 90 94 87 55 79 91 98 96 86 91 82 97 98 63 94 88 67 19 20 93 100 100 100 100 100 100 100 100
100 100 86 100 100 100 68 85 100 100 100 100 100 93 100 100 97 90 99 100 100 99 98 100 100 100 100 100 80 66 79 78 96 100 100 100 100 100 98 93 100 100 100
100 100 100 100 100 100 100 100 100 100 100 100 100 100 100 100 100 100 100 100 95 80 70 95 100 100 100 100 100 84 99 67 79 100 100 100 100 100 99 75 90 100 100
100 100 100 100 100 100 100 100 97 23 25 14 46 77 96 100 100 100 100 100 100 100 100 100 100 100 100 100 100 100 100 99 98 95 95 100 100 100 100 100 100 100 100
100 100 100 100 100 97 94 64 45 11 5 5 5 5 12 34 20 16 62 93 95 99 100 100 100 100 100 100 100 100 100 100 99 100 100 100 100 100 100 100 100 92 100
100 99 100 100 100 97 67 23 45 5 5 5 5 5 6 7 51 84 52 78 95 99 100 100 100 100 100 100 100 100 100 100 100 100 100 100 100 100 100 100 100 100 100
100 100 100 100 97 91 60 54 20 8 7 7 10 16 62 91 98 99 97 88 100 100 98 80 73 65 88 95 100 100 100 100 100 100 100 100 100 100 100 100 100 100 100
77 52 37 16 34 67 66 86 87 51 6 5 25 99 100 100 100 100 100 100 71 9 4 3 2 4 5 7 100 100 100 100 100 100 100 100 100 100 100 100 100 100 100
96 70 68 91 84 56 47 77 77 36 5 5 6 45 21 8 4 4 3 1 0 0 0 0 5 5 5 5 29 100 100 100 100 99 90 100 100 100 100 100 100 100 100